Location: America
(53.3186°N, 8.0683°W)
Time: 11:14:04
(UTC+00:00)

Daily predictions for brighter satellites

Satellite Brightness Start Highest point End
(mag) Time Altitude Azimuth Time Altitude Azimuth Time Altitude Azimuth
NOSS 3-2 (A) 4.4 19:47:43 10° NW 19:54:44 67° SW 20:03:17 10° SSE
NOSS 2-3 (D) 4.2 19:52:25 10° NW 19:57:00 63° NE 20:03:05 10° ESE
Meteor 2-5 Rocket 3.7 19:51:43 10° NNW 19:57:18 82° ENE 20:02:51 10° SSE
ARIANE 6 FM1 Upper Stage 3.3 19:56:03 10° SSW 19:59:47 33° SE 20:03:27 10° ENE
Cosmos 1328 4.5 19:56:28 10° NNW 19:59:54 51° W 20:03:18 10° S
Cosmos 1980 Rocket 4.3 19:55:45 10° W 20:00:43 30° NW 20:05:43 10° NNE
Okean 1-7 3.5 19:57:45 10° NNW 20:01:50 62° W 20:05:53 10° S
Nadezhda 3 Rocket 4.0 19:56:27 10° N 20:02:39 72° ENE 20:08:47 10° SSE
ERS-1 Rocket 3.3 19:59:51 10° SE 20:04:39 50° ENE 20:09:30 10° N
Cosmos 1441 Rocket 3.6 20:02:51 10° NNW 20:06:12 57° W 20:09:30 10° S
Cosmos 1943 Rocket 3.0 20:02:10 10° NNW 20:07:29 38° NE 20:12:45 10° ESE
Cosmos 1862 Rocket 4.5 20:03:48 10° NNW 20:08:09 53° W 20:12:26 10° S
Cosmos 1707 Rocket 4.3 20:04:32 10° NNW 20:08:46 55° W 20:12:58 10° S
Helios 1A Rocket 2.8 20:07:39 10° NNE 20:10:43 38° E 20:13:45 10° S
USA 59 Rocket 1.4 20:11:27 10° NNW 20:13:39 18° NNE 20:16:04 10° ENE
Cosmos 2228 Rocket 3.7 20:14:32 10° NNW 20:19:00 61° W 20:23:23 10° S
Cosmos 2154 Rocket 4.0 20:13:48 10° S 20:20:05 77° E 20:26:28 10° NNE
Exosat Rocket 4.4 20:15:09 10° NW 20:20:35 67° WSW 20:27:49 10° SSE
Aureole 1 Rocket 2.2 20:17:59 10° SSW 20:21:12 82° WNW 20:24:11 10° NNE
Cosmos 494 Rocket 4.2 20:16:19 10° NNW 20:21:25 56° ENE 20:26:28 10° SE
Cosmos 2278 4.1 20:17:36 10° SW 20:23:15 71° NW 20:28:57 10° NNE
ATLAS 3B R/B 3.2 20:15:57 10° SW 20:23:42 86° NW 20:31:40 10° NE
Okean-O 3.4 20:20:35 10° SE 20:24:27 34° ENE 20:28:25 10° N
SeaSat 1 4.3 20:21:09 10° ENE 20:24:31 19° NNE 20:27:53 10° NNW
USA 229 DEB 3.9 20:19:42 10° SW 20:25:51 74° NW 20:32:55 10° NE
USA 229 3.9 20:19:45 10° SW 20:25:54 75° NW 20:32:58 10° NE
deb Kosmos-1261 3.8 20:25:37 10° SW 20:27:20 75° SE 20:31:44 10° NE
Cosmos 2360 Rocket 2.2 20:22:03 10° SSW 20:27:42 89° ESE 20:33:24 10° NNE
Meteor 2-19 Rocket 4.5 20:22:04 10° N 20:28:16 78° ENE 20:34:26 10° SSE
CBERS 1 LM4 rocket 4.3 20:25:27 10° SSE 20:30:10 80° ENE 20:34:55 10° NNW
Cosmos 1340 Rocket 3.7 20:28:38 10° SSW 20:32:11 48° WNW 20:35:46 10° N
Meteor 1-16 Rocket 4.3 20:26:29 10° S 20:32:21 68° E 20:38:12 10° NNE
Cosmos 1666 Rocket 4.4 20:28:36 10° SSW 20:32:47 53° WNW 20:37:02 10° N
Cosmos 1633 Rocket 3.6 20:29:26 10° SSW 20:33:46 62° WNW 20:38:08 10° N
Cosmos 2322 Rocket 2.4 20:30:06 10° SW 20:35:43 78° WNW 20:41:22 10° NNE
Cosmos 1869 Rocket 4.2 20:31:52 10° SSE 20:35:52 35° E 20:39:54 10° NNE
Cosmos 2098 4.0 20:33:56 10° S 20:36:56 88° E 20:40:00 10° N
Cosmos 2184 Rocket 4.3 20:31:53 10° SSW 20:38:16 78° WNW 20:44:40 10° N
ADEOS 3.6 20:33:44 10° SSE 20:38:57 81° ENE 20:44:11 10° NNW
Terra 1.8 20:35:07 10° SSE 20:39:48 82° ENE 20:44:32 10° NNW
CZ-4 R/B 2.0 20:37:28 10° S 20:41:11 51° W 20:44:52 10° NNW
Feng Yun 1-1 Rocket 4.5 20:36:42 10° S 20:42:18 74° WSW 20:47:49 10° NNW
ATLAS 5 CENTAUR R/B 3.2 20:39:57 10° WNW 20:42:30 22° NNW 20:45:20 10° NE
SL-16 R/B 3.4 20:38:26 10° WSW 20:43:53 47° NW 20:49:23 10° NNE
MOS 1 4.4 20:40:28 10° SSE 20:46:06 79° WSW 20:51:49 10° NNW
SL-08 R/B 3.6 20:42:16 10° NNE 20:46:59 47° E 20:51:42 10° S
Cosmos 1898 Rocket 3.5 20:41:51 10° SSW 20:47:06 86° WNW 20:52:21 10° NNE
Okean O Rocket 1.8 20:43:57 14° SE 20:47:31 55° ENE 20:51:47 10° N
Cosmos 2237 Rocket 3.6 20:47:31 16° ESE 20:48:33 16° E 20:51:57 10° ENE
Cosmos 2322 4.1 20:46:44 10° S 20:52:00 40° ESE 20:57:18 10° NE
CZ-4B R/B 3.7 20:51:35 20° ESE 20:53:16 29° ENE 20:56:22 10° N
ASTEX 1 4.2 20:50:47 18° SE 20:53:46 34° ENE 20:58:11 10° N
Cosmos 2341 Rocket 4.2 20:48:41 10° SSE 20:54:41 52° E 21:00:46 10° NNE
Meteor 1-21 Rocket 4.3 20:50:56 10° N 20:56:31 65° ENE 21:01:08 15° SSE
Cosmos 1680 Rocket 3.7 20:52:35 10° NNW 20:57:48 69° WSW 21:02:37 12° SSE
IRS-1A Rocket 4.3 20:52:18 10° SSE 20:57:51 88° ENE 21:03:33 10° NNW
Cosmos 2333 4.5 20:52:58 10° SW 20:58:34 71° NW 21:04:11 10° NNE
Cosmos 1400 Rocket 4.4 21:03:02 15° E 21:03:02 15° E 21:04:50 10° NE
Cosmos 2219 Rocket 2.3 20:58:33 10° SW 21:04:08 81° WNW 21:09:47 10° NNE
USA 186 0.5 21:04:43 61° ESE 21:04:55 69° ENE 21:07:05 10° N
Meteor 2-14 Rocket 4.4 20:58:57 10° N 21:05:03 68° ENE 21:09:57 16° SSE
SPOT 3 Rocket 4.0 21:02:10 20° SE 21:05:27 46° ENE 21:10:24 10° N
Cosmos 1937 Rocket 3.7 21:03:15 10° SSW 21:08:34 78° WNW 21:13:53 10° NNE
SL-24 R/B - RUBIN 2 4.4 21:08:49 10° NW 21:13:01 45° SW 21:16:04 18° S
Cosmos 2112 Rocket 4.4 21:10:13 10° NNW 21:15:22 60° WSW 21:19:33 15° S
Cosmos 2369 Rocket 3.8 21:12:34 10° NNW 21:17:02 24° NNE 21:20:57 12° E
Cosmos 1674 Rocket 4.4 21:14:37 10° N 21:18:34 34° ENE 21:19:57 27° ESE
USA 245 3.6 21:17:15 29° SE 21:19:08 60° ENE 21:23:50 10° N
USA 234 3.3 21:13:02 10° ENE 21:19:37 87° NNW 21:26:12 10° WSW
SKYMED 3 4.4 21:16:15 10° NNE 21:20:09 75° WNW 21:24:01 10° SSW
COSMOS 2428 2.8 21:16:06 10° S 21:21:41 56° ESE 21:27:17 10° NE
SL-8 Rocket 3.9 21:15:46 10° S 21:22:00 80° E 21:28:19 10° NNE
CZ-4B R/B 4.1 21:17:55 10° S 21:23:17 49° W 21:28:45 10° NNW
Helios 1B rocket 4.4 21:23:49 11° ENE 21:24:22 12° NE 21:25:38 10° NNE
NOSS 0 Rocket 4.3 21:18:55 10° S 21:24:43 43° ESE 21:30:33 10° NE
Cosmos 1727 Rocket 4.2 21:18:33 10° N 21:24:51 57° ENE 21:28:33 25° SE
Cosmos 2278 Rocket 2.2 21:20:37 10° NNW 21:26:21 89° ENE 21:29:38 26° SSE
USA 238 DEB 3.9 21:19:56 10° NW 21:27:11 85° NE 21:32:16 25° SE
USA 238 3.9 21:20:06 10° NW 21:27:21 84° NE 21:32:26 25° SE
Ariane Rocket 3.2 21:26:52 29° SE 21:29:18 56° ENE 21:34:14 10° N
Cosmos 1346 Rocket 3.6 21:27:57 10° N 21:31:11 29° ENE 21:31:34 28° E
Cosmos 2366 rocket 3.9 21:25:52 10° S 21:32:02 85° E 21:38:14 10° NNE
CZ-2C R/B 2.3 21:32:30 48° ENE 21:32:34 48° ENE 21:35:24 10° N
Geosat 4.4 21:27:49 10° NNE 21:32:47 64° NW 21:37:43 10° SW
Cosmos 2333 Rocket 4.2 21:28:45 10° W 21:33:44 31° NW 21:38:45 10° NNE
Lacrosse 5 rocket 0.8 21:31:16 10° SW 21:34:04 52° S 21:34:04 52° S
Spot 2 Rocket 3.9 21:33:59 17° S 21:37:49 59° WSW 21:42:48 10° NNW
USA 32 3.9 21:34:21 18° S 21:38:17 81° E 21:43:33 10° N
Cosmos 1378 Rocket 3.5 21:34:12 10° N 21:38:38 71° ENE 21:40:16 38° SSE
ARIANE 6 FM1 Upper Stage 3.4 21:34:38 10° WSW 21:38:39 53° NNW 21:42:37 10° NE
YAOGAN 11 4.2 21:43:14 10° NNE 21:47:28 73° WNW 21:51:10 13° SSW
Cosmos 1656 Rocket 4.1 21:42:45 10° NNW 21:48:03 49° NE 21:50:17 31° ESE
Cosmos 1943 Rocket 2.7 21:45:55 10° NW 21:51:27 55° WSW 21:54:29 26° S
Cosmos 614 Rocket 3.9 21:46:51 10° NNW 21:52:04 80° ENE 21:53:59 40° SE
Meteor 1-11 4.3 21:50:20 10° NNW 21:55:54 74° W 21:58:49 29° S
SL-16 R/B 4.0 21:58:05 14° E 21:58:05 14° E 21:59:53 10° ENE
Cosmos 1733 Rocket 2.9 21:55:13 35° S 21:57:01 87° E 22:01:26 10° NNE
Cosmos 2218 Rocket 4.1 21:51:29 10° SSW 21:57:36 73° WNW 22:03:47 10° N
Meteor 2-16 Rocket 4.4 21:53:55 10° N 22:00:07 80° ENE 22:02:54 35° SSE
Cosmos 192 4.2 21:57:21 21° SSW 22:00:35 79° ESE 22:05:32 10° NNE
Okean-O 3.9 21:57:55 17° SSW 22:00:43 35° W 22:04:46 10° NNW
SeaSat 1 2.7 21:59:30 39° ESE 22:01:07 59° NE 22:05:58 10° NNW
Cosmos 2123 Rocket 4.1 21:55:16 10° N 22:01:27 59° ENE 22:03:50 37° SE
Meteor 2-15 Rocket 4.3 21:57:49 23° S 22:01:50 83° E 22:07:58 10° NNE
CZ-4B R/B 3.5 22:00:11 34° S 22:02:16 70° WSW 22:07:05 10° NNW
USA 59 Rocket -0.6 21:59:27 10° NW 22:02:37 78° NE 22:02:48 74° E
BREEZE-M DEB (TANK) 4.0 22:01:45 10° WSW 22:02:41 21° WSW 22:02:41 21° WSW
IRS-1C Rocket 4.1 22:01:56 36° S 22:04:12 80° WSW 22:09:31 10° NNW
Cosmos 1934 Rocket 4.4 22:03:44 36° SE 22:05:26 43° E 22:11:17 10° NNE
NOSS 3-4 (A) 3.3 22:10:28 44° SSE 22:11:23 49° SE 22:17:01 10° NE
NOSS 3-4 (C) 3.3 22:11:01 44° SSE 22:11:52 48° SE 22:17:32 10° NE
Cosmos 1821 Rocket 4.1 22:06:58 17° SSW 22:11:55 78° W 22:18:18 10° N
Cosmos 2360 Rocket 4.4 22:07:42 10° W 22:12:25 27° NW 22:17:12 10° NNE
TIMED 4.3 22:08:16 10° NNW 22:12:34 85° ENE 22:13:06 67° SE
ATLAS 3B R/B 4.1 22:07:58 10° W 22:15:26 45° NNW 22:22:55 10° NE
Cosmos 2239 Rocket 4.4 22:13:59 34° S 22:16:51 78° E 22:23:05 10° NNE
Aureole 3 4.4 22:13:16 10° NNW 22:17:08 46° W 22:18:55 30° SSW
Terra 4.3 22:15:02 10° SW 22:17:57 16° W 22:20:53 10° NW
NOSS 2-1 (E) 3.1 22:18:11 10° NW 22:21:04 68° N 22:21:04 68° N
NOSS 2-1 (C) 3.2 22:19:55 10° NW 22:22:43 68° NW 22:22:43 68° NW
Okean O Rocket 3.7 22:21:12 12° SW 22:24:01 22° W 22:27:24 10° NW
NOSS 3-1 (C) 4.2 22:17:50 10° NW 22:24:04 56° NNE 22:28:44 25° E
Cosmos 1025 Rocket 3.0 22:21:21 10° NNW 22:25:34 69° W 22:26:07 60° SW
ATLAS 5 CENTAUR R/B 3.7 22:23:17 10° NW 22:25:42 17° N 22:28:24 10° NE
CZ-4B R/B 4.1 22:26:18 26° WSW 22:27:00 28° W 22:30:07 10° NW
SME Rocket 4.5 22:21:32 10° NNE 22:27:35 66° ESE 22:32:12 30° S
RESURS DK-1 4.3 22:30:06 17° NE 22:30:06 17° NE 22:31:14 10° NE
NOSS 2-1 (D) 3.4 22:25:30 10° NW 22:28:09 58° WNW 22:28:09 58° WNW
SL-08 R/B 4.4 22:23:46 10° N 22:29:58 89° E 22:32:01 45° S
ALOS 2 4.3 22:29:40 21° ENE 22:30:06 21° ENE 22:33:23 10° N
Cosmos 2237 Rocket 2.1 22:29:12 35° SSW 22:31:41 78° ESE 22:37:25 10° NNE
Cosmos 1125 Rocket 3.4 22:31:27 56° S 22:32:27 73° ESE 22:37:42 10° NNE
Cosmos 1980 3.6 22:29:38 30° SSW 22:32:32 84° ESE 22:38:13 10° NNE
ASTEX 1 4.5 22:30:05 23° SW 22:32:33 39° W 22:37:10 10° NNW
Cosmos 1605 Rocket 4.4 22:32:45 39° ESE 22:33:28 40° E 22:39:06 10° NNE
Cosmos 2292 Rocket 4.3 22:27:35 10° NNW 22:33:29 62° W 22:34:54 44° SSW
Cosmos 2297 4.2 22:30:14 10° NNW 22:35:52 52° NE 22:37:29 40° E
TSX-5 4.5 22:38:07 49° ENE 22:38:07 49° ENE 22:41:18 10° NE
Cosmos 1400 Rocket 3.2 22:37:29 50° WNW 22:37:34 50° WNW 22:41:07 10° N
ARIANE 5 R/B 3.8 22:40:11 29° ENE 22:40:14 29° ENE 22:43:59 10° N
COSMOS 2455 4.2 22:36:02 10° NW 22:41:26 32° NNE 22:45:15 17° E
Cosmos 1975 Rocket 3.6 22:37:22 10° N 22:41:32 46° ENE 22:41:32 46° ENE
Cosmos 2219 Rocket 4.5 22:44:26 10° W 22:48:56 24° NW 22:53:29 10° NNE
Helios 1B rocket 3.1 22:57:49 45° NNW 22:57:49 45° NNW 23:00:21 10° NNW
Cosmos 1908 Rocket 3.6 22:59:12 72° WNW 22:59:12 72° WNW 23:03:31 10° N
Cosmos 2369 Rocket 2.1 22:56:20 10° NNW 23:01:58 78° ENE 23:02:43 66° ESE
USA 234 3.6 22:56:02 10° ENE 23:02:30 66° N 23:08:59 10° W
Cosmos 1869 4.5 23:07:09 35° N 23:07:09 35° N 23:09:20 10° N
COSMOS 2428 4.1 23:00:51 10° WSW 23:06:11 38° NW 23:11:32 10° NNE
Cosmos 1346 Rocket 4.3 23:03:09 10° NW 23:05:50 26° W 23:05:50 26° W
Cosmos 2221 Rocket 4.5 23:03:12 10° NNW 23:07:19 40° W 23:07:32 39° W
Cosmos 1782 Rocket 3.9 23:08:26 57° NNE 23:08:26 57° NNE 23:11:58 10° NNE
Cosmos 2263 4.2 23:02:41 10° NNW 23:08:19 69° NE 23:09:06 61° ESE
Helios 1A 3.4 23:05:29 10° NNE 23:08:37 54° NNE 23:08:37 54° NNE
Cosmos 2278 Rocket 4.0 23:05:44 10° NW 23:09:40 20° W 23:11:29 17° SW
Cosmos 1023 Rocket 4.5 23:09:26 10° NNW 23:14:34 65° ENE 23:14:45 64° ENE
NOSS 3-1 (A) 4.3 23:08:54 10° NW 23:15:12 56° NNE 23:19:58 24° E
Spot 4 4.1 23:16:25 58° ENE 23:16:25 58° ENE 23:20:57 10° N
Cosmos 2058 3.7 23:14:13 10° N 23:17:08 46° N 23:17:08 46° N
DNEPR-1 R/B 4.4 23:30:04 39° WNW 23:31:09 48° NW 23:35:37 10° NE
Cosmos 1656 Rocket 4.4 23:26:30 10° NW 23:31:28 37° WSW 23:31:36 37° WSW
CZ-2C R/B 4.5 23:27:30 10° NNE 23:30:43 42° NE 23:30:43 42° NE
SJ 16-02 3.0 23:29:35 10° N 23:33:11 25° NE 23:33:16 25° NE
Cosmos 407 Rocket 4.0 23:28:59 10° NNW 23:34:00 47° NE 23:34:21 46° ENE
Cosmos 1153 Rocket 4.4 23:36:24 64° ESE 23:36:50 65° E 23:43:00 10° NNE
SeaSat 1 3.7 23:39:06 29° WSW 23:39:06 29° WSW 23:43:03 10° NW
SL-16 R/B 2.1 23:39:53 77° ESE 23:39:53 77° ESE 23:45:27 10° NE
Meteor 2-17 Rocket 4.3 23:34:07 10° N 23:40:19 86° ENE 23:40:58 73° SSE
Cosmos 2298 Rocket 3.9 23:44:10 84° NNE 23:44:10 84° NNE 23:49:20 10° NNE
CZ-2C R/B 3.6 23:44:18 37° E 23:45:09 39° ENE 23:50:14 10° N
Meteor 2-3 Rocket 4.1 23:39:57 10° N 23:45:27 51° ENE 23:45:50 50° E
Cosmos 921 Rocket 3.6 23:41:14 10° NNW 23:44:53 56° N 23:44:53 56° N
Cosmos 1315 Rocket 4.2 23:49:49 35° N 23:49:49 35° N 23:52:10 10° N
Cosmos 1140 Rocket 3.5 23:43:50 10° NNW 23:48:38 73° WNW 23:48:38 73° WNW
Cosmos 1356 Rocket 4.5 23:53:23 41° N 23:53:23 41° N 23:56:08 10° NNE
Cosmos 1536 Rocket 4.3 23:48:05 10° N 23:51:23 47° NNE 23:51:23 47° NNE
